CZ-3B DEB, 40182

Orbit data source: Space-Track

CZ-3B DEB, 40182 is space debris in HEO originally from a launch on Mon, 19 Dec 2011 UTC launched from the Xichang Space Center, China (XSC). Debris objects in space refer to the collection of defunct objects orbiting the Earth. Examples of debris include non-operational satellites, rocket bodies, and fragments generated from explosions, collisions, or faulty payload assembly.

Loading next visibility...
Identifier
40182, 2011-077F
Orbit
HEO
Country
Flag of CNCN / PRC
Related business
Manufacturer
CALT
Mission
Spacecraft
Bus & Motor
Unknown
Mass
Unknown
Launch date (UTC)
2011-12-19 (14 years ago)
Launch vehicle
Unknown
Launch site
Xichang Space Center, China (XSC)
Object type
Payload
Rocket body
Debris
Shape & HBR
Unknown shape, 0.2 m
Radar Cross Section
Medium (>0.1 m² and <1 m²)

Expand to show TLE details & history
Last TLE update: 18 hours ago

TLE from 18 hours ago
0 CZ-3B DEB
1 40182U 11077F   25290.51538843  .00000072  00000-0  17027-2 0  9994
2 40182  23.2499 332.5524 7529485 184.1058 160.7676  1.87692840 80429
Epoch: 2025-10-17T12:22Z
TLE epoch observation values (Epoch: 2025-10-17T12:22:09.560Z)
Latitude
-0.00003°
Longitude
120.7509°
Altitude
41,895.477 km
Speed
1.468 km/s
True Right ascension
22h 10m 12s
True Declination
0° 00' 00"
Sunlit
Object was in daylight at epoch
Visualization orbit readout
Latitude
Unknown
Longitude
Unknown
Altitude
Unknown
Speed
Unknown
Apparent Right ascension
Unknown
Apparent Declination
Unknown
Sunlit
N/A
Visualization observer readout
Local Sidereal Time
01:11:45
Azimuth
Unknown
Elevation
Unknown
Doppler factor
Unknown
Orbital elements
Apogee altitude
42,293.153 km
Perigee altitude
481.343 km
Semi-major axis
27,765.385 km
Eccentricity
0.75295
Inclination
23.2499°
RAAN
332.5524°
Arg. of periapsis
184.1058°
True anomaly
175.85937°
Mean anomaly
160.7676°
Eccentric anomaly
168.99957°
Mean motion
0.46912 °/min
Orbital period
767.39 mins
BSTAR
0.0017027
Loading maneuver chart data...
Computing Atmospheric mass density...
Loading historical data...
Loading historical data...
Loading historical data...
Loading historical data...
Loading historical data...
Loading historical data...
Loading historical data...

Documentation

Showing up to 5 results
|